Regional Weather Roundup
Issued by NWS

Home | Current Version | Previous Version | Text Only | Print | Product List | Glossary On
Versions: 1 2 3 4 5 6 7 8 9 10 11 12 13 14 15 16 17 18 19 20 21 22 23 24 25 26 27 28 29 30 31 32 33 34 35 36 37 38 39 40 41 42 43 44 45 46 47 48 49 50
000
ASUS43 KLMK 011710
RWRKY
KENTUCKY REGIONAL WEATHER ROUNDUP
NATIONAL WEATHER SERVICE LOUISVILLE KY
1200 PM EST WED MAR 01 2017

NOTE "FAIR" INDICATES FEW OR NO CLOUDS BELOW 12,000 FEET
WITH NO SIGNIFICANT WEATHER AND/OR OBSTRUCTIONS TO VISIBILITY.

KYZ001>023-026-027-061>063-070>075-011800-
WESTERN AND SOUTH CENTRAL KENTUCKY

CITY           SKY/WX    TMP DP  RH WIND       PRES   REMARKS
PADUCAH        MOSUNNY   62  48  60 NW17G26   29.83R
HENDERSON      CLOUDY    55  46  71 W22G30    29.79R
OWENSBORO      PTSUNNY   60  51  72 W24G31    29.78R
HOPKINSVILLE   MOSUNNY   68  53  59 W15       29.78R
BOWLING GREEN  PTSUNNY   67  54  63 SW20G26   29.78R
GLASGOW        MOSUNNY   67  55  66 W16G31    29.76S
$$

KYZ024-025-028>034-038-045-046-053-011800-
NORTH CENTRAL KENTUCKY

CITY           SKY/WX    TMP DP  RH WIND       PRES   REMARKS
LOUISVILLE/SDF PTSUNNY   65  52  62 SW21G30   29.69R
LOUISVILLE/LOU PTSUNNY   64  52  64 SW17G25   29.69R
FORT KNOX      MOSUNNY   64  54  71 SW16G24   29.69R
$$

KYZ035>037-039>044-047>052-055>060-089>105-011800-
NORTHEAST KENTUCKY

CITY           SKY/WX    TMP DP  RH WIND       PRES   REMARKS
LEXINGTON      CLOUDY    63  54  72 SW18G32   29.70S
COVINGTON      CLOUDY    59  52  77 SW18G29   29.63R
FRANKFORT      PTSUNNY   63  54  72 SW18G28   29.67S
$$

KYZ054-064>069-076>088-106>120-011800-
SOUTHEAST KENTUCKY

CITY           SKY/WX    TMP DP  RH WIND       PRES   REMARKS
JACKSON        CLOUDY    54  51  90 SW9       29.77F
LONDON         RAIN      56  52  86 S8G18     29.80F FOG
SOMERSET       CLOUDY    57  55  94 SW9G16    29.80R
MIDDLESBORO    RAIN      55  55 100 CALM      29.87F
MONTICELLO     CLOUDY    61  57  87 SW18G31   29.82R
$$





USA.gov is the U.S. government's official web portal to all federal, state and local government web resources and services.